Location: Mauries
(43.6188°N, 0.3322°W)
Time: 04:41:29
(UTC+00:00)

BUGSAT 1 - Visible Passes

Search period start: 14 May 2026 00:00
Search period end: 24 May 2026 00:00
Orbit: 502 x 539 km, 98.0° (Epoch: 13 May)

Date Brightness Start Highest point End Pass type
(mag) Time Alt. Az. Time Alt. Az. Time Alt. Az.
14 May ? 23:07:26 45° NNW 23:07:26 45° NNW 23:10:12 10° NNW visible
15 May ? 22:53:48 49° N 22:53:48 49° N 22:56:47 10° N visible
16 May ? 22:40:10 42° NE 22:40:10 42° NE 22:43:16 10° N visible
17 May ? 00:15:16 11° WNW 00:15:16 11° WNW 00:15:48 10° WNW visible
17 May ? 22:26:32 32° ENE 22:26:32 32° ENE 22:29:39 10° N visible
18 May ? 00:01:38 16° WNW 00:01:38 16° WNW 00:03:08 10° NW visible
18 May ? 22:12:54 23° ENE 22:12:54 23° ENE 22:15:57 10° NNE visible
18 May ? 23:47:59 23° WNW 23:47:59 23° WNW 23:50:08 10° NW visible
19 May ? 21:59:16 17° ENE 21:59:32 17° ENE 22:02:06 10° NNE visible
19 May ? 23:34:21 32° WNW 23:34:21 32° WNW 23:36:58 10° NNW visible
20 May ? 21:45:37 12° ENE 21:46:15 12° ENE 21:47:55 10° NE visible
20 May ? 23:20:42 45° NW 23:20:42 45° NW 23:23:41 10° NNW visible
21 May ? 23:07:04 59° NNW 23:07:04 59° NNW 23:10:18 10° NNW visible
22 May ? 22:53:26 59° NNE 22:53:26 59° NNE 22:56:50 10° N visible
23 May ? 22:39:47 44° ENE 22:39:47 44° ENE 22:43:18 10° N visible
